TimeCST,TemperatureF,Dew PointF,Humidity,Sea Level PressureIn,VisibilityMPH,Wind Direction,Wind SpeedMPH,Gust SpeedMPH,PrecipitationIn,Events,Conditions,WindDirDegrees,DateUTC
12:15 AM,35.6,30.2,81,30.35,7.0,SSE,6.9,-,N/A,,Clear,160,2012-11-17 06:15:00
12:35 AM,35.6,30.2,81,30.35,7.0,SSE,4.6,-,N/A,,Clear,160,2012-11-17 06:35:00
12:55 AM,35.6,30.2,81,30.35,7.0,SSE,6.9,-,N/A,,Clear,150,2012-11-17 06:55:00
1:15 AM,35.6,30.2,81,30.35,7.0,SSE,5.8,-,N/A,,Clear,160,2012-11-17 07:15:00
1:35 AM,33.8,30.2,87,30.35,7.0,SSE,6.9,-,N/A,,Clear,160,2012-11-17 07:35:00
1:54 AM,33.8,30.2,87,30.35,7.0,SSE,5.8,-,N/A,,Clear,160,2012-11-17 07:54:00
2:15 AM,33.8,30.2,87,30.35,7.0,SSE,4.6,-,N/A,,Clear,150,2012-11-17 08:15:00
2:35 AM,33.8,30.2,87,30.36,7.0,SSE,4.6,-,N/A,,Clear,160,2012-11-17 08:35:00
2:55 AM,33.8,30.2,87,30.35,7.0,SSE,5.8,-,N/A,,Clear,160,2012-11-17 08:55:00
3:15 AM,33.8,30.2,87,30.35,7.0,SSE,5.8,-,N/A,,Clear,160,2012-11-17 09:15:00
3:34 AM,33.8,30.2,87,30.35,7.0,SSE,4.6,-,N/A,,Clear,160,2012-11-17 09:34:00
3:55 AM,33.8,30.2,87,30.35,7.0,SSE,3.5,-,N/A,,Clear,150,2012-11-17 09:55:00
4:15 AM,33.8,30.2,87,30.34,7.0,SSE,4.6,-,N/A,,Clear,150,2012-11-17 10:15:00
4:35 AM,33.8,30.2,87,30.34,7.0,SSE,5.8,-,N/A,,Clear,160,2012-11-17 10:35:00
4:55 AM,33.8,30.2,87,30.34,5.0,SSE,5.8,-,N/A,,Clear,160,2012-11-17 10:55:00
5:14 AM,33.8,30.2,87,30.34,5.0,SSE,6.9,-,N/A,,Clear,160,2012-11-17 11:14:00
5:35 AM,33.8,30.2,87,30.33,7.0,SSE,9.2,-,N/A,,Clear,160,2012-11-17 11:35:00
5:55 AM,33.8,30.2,87,30.33,7.0,SSE,8.1,-,N/A,,Clear,160,2012-11-17 11:55:00
6:15 AM,33.8,30.2,87,30.33,7.0,SSE,8.1,-,N/A,,Clear,160,2012-11-17 12:15:00
6:35 AM,33.8,30.2,87,30.33,5.0,SSE,9.2,-,N/A,,Clear,160,2012-11-17 12:35:00
6:54 AM,33.8,30.2,87,30.33,5.0,SSE,6.9,-,N/A,,Clear,160,2012-11-17 12:54:00
7:15 AM,33.8,30.2,87,30.33,5.0,SSE,8.1,-,N/A,,Clear,160,2012-11-17 13:15:00
7:35 AM,33.8,30.2,87,30.33,4.0,SSE,6.9,-,N/A,,Clear,160,2012-11-17 13:35:00
7:55 AM,35.6,32.0,87,30.33,5.0,SSE,9.2,-,N/A,,Clear,160,2012-11-17 13:55:00
8:15 AM,35.6,32.0,87,30.34,5.0,SSE,9.2,-,N/A,,Clear,160,2012-11-17 14:15:00
8:35 AM,37.4,33.8,87,30.34,5.0,SSE,6.9,-,N/A,,Clear,160,2012-11-17 14:35:00
8:55 AM,39.2,33.8,81,30.34,5.0,SSE,5.8,-,N/A,,Haze,160,2012-11-17 14:55:00
9:15 AM,39.2,35.6,87,30.34,7.0,South,9.2,-,N/A,,Clear,170,2012-11-17 15:15:00
9:35 AM,42.8,35.6,76,30.34,7.0,South,10.4,-,N/A,,Clear,180,2012-11-17 15:35:00
9:55 AM,42.8,35.6,76,30.34,7.0,South,11.5,-,N/A,,Clear,180,2012-11-17 15:55:00
10:15 AM,46.4,37.4,71,30.35,10.0,South,12.7,17.3,N/A,,Clear,190,2012-11-17 16:15:00
10:35 AM,44.6,37.4,76,30.34,10.0,South,11.5,-,N/A,,Clear,180,2012-11-17 16:35:00
10:55 AM,46.4,37.4,71,30.33,10.0,South,12.7,19.6,N/A,,Clear,170,2012-11-17 16:55:00
11:15 AM,50.0,37.4,62,30.32,10.0,South,16.1,-,N/A,,Clear,180,2012-11-17 17:15:00
11:35 AM,48.2,37.4,66,30.32,10.0,South,12.7,-,N/A,,Clear,170,2012-11-17 17:35:00
11:54 AM,48.2,37.4,66,30.31,10.0,South,13.8,18.4,N/A,,Clear,170,2012-11-17 17:54:00
12:15 PM,50.0,37.4,62,30.30,10.0,South,12.7,-,N/A,,Clear,180,2012-11-17 18:15:00
12:35 PM,51.8,37.4,58,30.29,10.0,South,15.0,20.7,N/A,,Clear,170,2012-11-17 18:35:00
12:54 PM,51.8,37.4,58,30.29,10.0,South,13.8,21.9,N/A,,Clear,180,2012-11-17 18:54:00
1:15 PM,53.6,37.4,54,30.28,10.0,South,12.7,20.7,N/A,,Clear,170,2012-11-17 19:15:00
1:35 PM,53.6,37.4,54,30.28,10.0,South,13.8,19.6,N/A,,Clear,170,2012-11-17 19:35:00
1:55 PM,53.6,37.4,54,30.27,10.0,South,11.5,17.3,N/A,,Clear,170,2012-11-17 19:55:00
2:15 PM,53.6,37.4,54,30.26,10.0,South,11.5,16.1,N/A,,Clear,170,2012-11-17 20:15:00
2:35 PM,53.6,37.4,54,30.26,10.0,SSE,11.5,17.3,N/A,,Clear,160,2012-11-17 20:35:00
2:55 PM,55.4,37.4,51,30.25,10.0,South,10.4,16.1,N/A,,Clear,170,2012-11-17 20:55:00
3:15 PM,55.4,37.4,51,30.25,10.0,South,12.7,20.7,N/A,,Clear,170,2012-11-17 21:15:00
3:35 PM,55.4,37.4,51,30.25,10.0,SSE,10.4,17.3,N/A,,Clear,160,2012-11-17 21:35:00
3:55 PM,55.4,37.4,51,30.25,10.0,SSE,9.2,-,N/A,,Clear,160,2012-11-17 21:55:00
4:15 PM,53.6,37.4,54,30.25,10.0,SSE,9.2,18.4,N/A,,Clear,160,2012-11-17 22:15:00
4:35 PM,51.8,37.4,58,30.25,10.0,SSE,9.2,-,N/A,,Clear,160,2012-11-17 22:35:00
4:55 PM,51.8,37.4,58,30.25,10.0,SSE,10.4,-,N/A,,Clear,160,2012-11-17 22:55:00
5:15 PM,50.0,37.4,62,30.25,10.0,SSE,9.2,16.1,N/A,,Clear,160,2012-11-17 23:15:00
5:35 PM,48.2,37.4,66,30.26,10.0,SSE,6.9,-,N/A,,Clear,150,2012-11-17 23:35:00
5:55 PM,48.2,37.4,66,30.25,10.0,SSE,8.1,-,N/A,,Clear,150,2012-11-17 23:55:00
6:15 PM,48.2,35.6,62,30.25,10.0,SSE,9.2,-,N/A,,Clear,150,2012-11-18 00:15:00
6:35 PM,48.2,35.6,62,30.25,10.0,SSE,9.2,-,N/A,,Clear,150,2012-11-18 00:35:00
6:55 PM,48.2,35.6,62,30.24,10.0,SSE,11.5,-,N/A,,Clear,150,2012-11-18 00:55:00
7:15 PM,48.2,35.6,62,30.24,10.0,SSE,10.4,19.6,N/A,,Clear,160,2012-11-18 01:15:00
7:35 PM,48.2,35.6,62,30.25,10.0,SSE,11.5,16.1,N/A,,Clear,160,2012-11-18 01:35:00
7:55 PM,46.4,35.6,66,30.25,10.0,SSE,11.5,17.3,N/A,,Clear,160,2012-11-18 01:55:00
8:15 PM,46.4,33.8,62,30.25,10.0,SSE,10.4,18.4,N/A,,Clear,160,2012-11-18 02:15:00
8:54 PM,46.4,33.8,62,30.25,10.0,SSE,12.7,18.4,N/A,,Clear,160,2012-11-18 02:54:00
9:15 PM,46.4,33.8,62,30.26,10.0,SSE,10.4,-,N/A,,Scattered Clouds,160,2012-11-18 03:15:00
9:35 PM,46.4,33.8,62,30.25,10.0,SSE,12.7,19.6,N/A,,Mostly Cloudy,160,2012-11-18 03:35:00
9:55 PM,46.4,33.8,62,30.26,10.0,SSE,11.5,18.4,N/A,,Mostly Cloudy,160,2012-11-18 03:55:00
10:15 PM,46.4,33.8,62,30.26,10.0,SSE,10.4,16.1,N/A,,Overcast,160,2012-11-18 04:15:00
10:35 PM,44.6,33.8,66,30.26,10.0,South,9.2,-,N/A,,Mostly Cloudy,170,2012-11-18 04:35:00
10:55 PM,44.6,33.8,66,30.26,10.0,South,8.1,-,N/A,,Mostly Cloudy,170,2012-11-18 04:55:00
11:15 PM,44.6,33.8,66,30.26,10.0,South,8.1,-,N/A,,Scattered Clouds,170,2012-11-18 05:15:00
11:35 PM,44.6,33.8,66,30.26,10.0,SSE,9.2,-,N/A,,Mostly Cloudy,160,2012-11-18 05:35:00
11:55 PM,44.6,33.8,66,30.26,10.0,SSE,8.1,-,N/A,,Overcast,160,2012-11-18 05:55:00